This demonstration page uses our WeatherBlox Daily Observations layout. Learn more.

Left ArrowRight Arrow

39.51506, -84.39828

Hourly Observations for August 25, 2021

Temp ( °F °C ) Dew Point ( °F °C ) Humidity (%) Winds ( mph kmh ) Pressure ( in mb ) Visibility ( mi km ) Precip ( " mm )
12:15 am 00:15 Clear 73 23 N/A N/A N N/A 30.05 1018 10 16 N/A
12:35 am 00:35 Clear 72 22 N/A N/A N N/A 30.05 1018 7 11 N/A
12:55 am 00:55 Clear 73 23 N/A N/A N N/A 30.06 1018 10 16 N/A
1:15 am 01:15 Clear 72 22 N/A N/A N N/A 30.06 1018 7 11 N/A
1:35 am 01:35 Clear 72 22 N/A N/A N N/A 30.07 1018 7 11 N/A
1:55 am 01:55 Clear 72 22 N/A N/A N N/A 30.06 1018 7 11 N/A
2:15 am 02:15 Hazy 72 22 N/A N/A N N/A 30.07 1018 7 11 N/A
2:35 am 02:35 Hazy 72 22 N/A N/A N N/A 30.06 1018 5 8 N/A
2:55 am 02:55 Mostly Cloudy 72 22 N/A N/A N N/A 30.06 1018 7 11 N/A
3:15 am 03:15 Hazy 72 22 N/A N/A N N/A 30.06 1018 7 11 N/A
3:35 am 03:35 Hazy 72 22 N/A N/A N N/A 30.07 1018 7 11 N/A
3:55 am 03:55 Hazy 72 22 N/A N/A N N/A 30.07 1018 5 8 N/A
4:15 am 04:15 Mostly Cloudy with Haze 72 22 N/A N/A N N/A 30.08 1019 5 8 N/A
4:35 am 04:35 Mostly Cloudy 72 22 N/A N/A N N/A 30.07 1018 7 11 N/A
4:55 am 04:55 Hazy 72 22 N/A N/A N N/A 30.06 1018 7 11 N/A
5:15 am 05:15 Hazy 72 22 N/A N/A WNW 3 6 30.05 1018 5 8 N/A
5:35 am 05:35 Hazy 72 22 N/A N/A N N/A 30.05 1018 5 8 N/A
5:55 am 05:55 Hazy 72 22 N/A N/A W 3 6 30.04 1017 4 6 N/A
6:15 am 06:15 Hazy 73 23 N/A N/A N N/A 30.05 1018 7 11 N/A
6:35 am 06:35 Hazy 73 23 N/A N/A W 3 6 30.06 1018 5 8 N/A
6:55 am 06:55 Hazy 73 23 N/A N/A N N/A 30.07 1018 4 6 N/A
7:15 am 07:15 Hazy 73 23 N/A N/A N N/A 30.08 1019 7 11 N/A
7:35 am 07:35 Partly Cloudy 75 24 75 24 100 100 N N/A 30.07 1018 7 11 N/A
7:55 am 07:55 Hazy 75 24 N/A N/A N N/A 30.08 1018 5 8 N/A
8:15 am 08:15 Hazy 75 24 N/A N/A NW 3 6 30.08 1018 5 8 N/A
8:35 am 08:35 Partly Cloudy 76 24.6 76 24.2 98 98 NW 6 9 30.08 1019 7 11 N/A
8:55 am 08:55 Mostly Cloudy 77 24.9 75 23.8 94 94 W 3 6 30.10 1019 10 16 N/A
9:15 am 09:15 Partly Cloudy 77 25.2 74 23.5 90 90 SW 5 7 30.10 1019 10 16 N/A
9:35 am 09:35 Sunny 79 25.9 75 23.7 88 88 SW 5 7 30.10 1019 10 16 N/A
9:55 am 09:55 Sunny 80 26.5 75 23.7 85 85 WSW 7 11 30.11 1020 10 16 N/A
10:15 am 10:15 Partly Cloudy 80 26.5 75 24 86 86 SW 8 13 30.12 1020 10 16 N/A
10:35 am 10:35 Mostly Cloudy 81 27.1 74 23.3 80 80 W 8 13 30.13 1020 10 16 N/A
10:55 am 10:55 Cloudy with Light Rain 80 26.4 72 22.4 79 79 WNW 8 13 30.13 1020 10 16 N/A
11:15 am 11:15 Cloudy 80 26.7 70 20.9 71 71 W 16 26 30.14 1021 10 16 N/A
11:35 am 11:35 Cloudy with Light Rain 77 24.9 69 20.7 78 78 W 13 20 30.14 1021 10 16 N/A
11:55 am 11:55 Cloudy with Light Rain 74 23.6 72 22.3 92 92 NNW 8 13 30.15 1021 7 11 0.02 0.51
12:15 pm 12:15 Cloudy with Light Rain 75 23.8 73 22.9 95 95 NW 3 6 30.14 1021 10 16 0.01 0.25
12:35 pm 12:35 Cloudy with Light Rain 77 25.1 74 23.3 90 90 N N/A 30.11 1020 10 16 0.02 0.51
12:55 pm 12:55 Mostly Cloudy with Light Rain 80 26.8 74 23.3 81 81 SW 3 6 30.10 1019 10 16 0.02 0.51
1:15 pm 13:15 Mostly Cloudy with Nearby Thunderstorms 80 26.7 74 23.6 83 83 N N/A 30.11 1020 10 16 N/A
1:35 pm 13:35 Partly Cloudy 82 27.6 75 24.1 81 81 N N/A 30.11 1020 10 16 N/A
1:55 pm 13:55 Partly Cloudy 85 29.4 74 23.4 70 70 WSW 7 11 30.11 1020 10 16 N/A
2:15 pm 14:15 Sunny 85 29.7 73 23 67 67 W 7 11 30.10 1019 10 16 N/A
2:35 pm 14:35 Sunny 86 30 73 22.8 65 65 WSW 7 11 30.09 1019 10 16 N/A
2:55 pm 14:55 Sunny 87 30.5 72 22.4 62 62 W 7 11 30.07 1018 10 16 N/A
3:15 pm 15:15 Sunny 86 30.2 73 22.9 65 65 W 8 13 30.08 1019 10 16 N/A
3:35 pm 15:35 Sunny 86 29.8 74 23.1 67 67 W 7 11 30.08 1019 10 16 N/A
3:55 pm 15:55 Sunny 86 30 74 23.6 69 69 W 7 11 30.08 1019 10 16 N/A
4:15 pm 16:15 Sunny 86 30.1 75 24 70 70 W 7 11 30.07 1018 10 16 N/A
4:35 pm 16:35 Sunny 86 30.1 75 23.9 69 69 WNW 6 9 30.07 1018 10 16 N/A
4:55 pm 16:55 Sunny 88 31.3 75 24.1 66 66 W 9 15 30.06 1018 10 16 N/A
5:15 pm 17:15 Mostly Cloudy 88 31.2 75 24.1 66 66 WNW 8 13 30.06 1018 10 16 N/A
5:35 pm 17:35 Partly Cloudy 88 31 75 23.7 65 65 NW 9 15 30.06 1018 10 16 N/A
5:55 pm 17:55 Sunny 87 30.6 74 23.5 66 66 WNW 8 13 30.06 1018 10 16 N/A
6:15 pm 18:15 Sunny 85 29.6 75 23.7 71 71 W 9 15 30.06 1018 10 16 N/A
6:35 pm 18:35 Sunny 85 29.3 75 24 73 73 WNW 6 9 30.06 1018 10 16 N/A
6:55 pm 18:55 Sunny 84 29 76 24.3 76 76 NW 7 11 30.06 1018 10 16 N/A
7:15 pm 19:15 Sunny 85 29.4 75 24.1 73 73 NW 7 11 30.05 1018 10 16 N/A
7:35 pm 19:35 Sunny 84 29 76 24.2 75 75 NNW 6 9 30.05 1018 10 16 N/A
7:55 pm 19:55 Sunny 83 28.3 74 23.6 76 76 NW 7 11 30.06 1018 10 16 N/A
8:15 pm 20:15 Sunny 80 26.7 75 23.8 84 84 NW 6 9 30.05 1018 10 16 N/A
8:35 pm 20:35 Clear 79 26.2 75 23.7 86 86 WNW 3 6 30.05 1018 10 16 N/A
8:55 pm 20:55 Clear 78 25.3 76 24.6 96 96 N N/A 30.06 1018 10 16 N/A
9:15 pm 21:15 Clear 75 24 75 24 100 100 N N/A 30.07 1018 10 16 N/A
9:35 pm 21:35 Clear 75 24 N/A N/A N N/A 30.08 1018 10 16 N/A
9:55 pm 21:55 Clear 73 23 N/A N/A N N/A 30.09 1019 10 16 N/A
10:15 pm 22:15 Clear 73 23 N/A N/A N N/A 30.09 1019 10 16 N/A
10:35 pm 22:35 Clear 76 24.5 74 23.3 93 93 N N/A 30.08 1019 10 16 N/A
10:55 pm 22:55 Clear 73 23 N/A N/A N N/A 30.09 1019 7 11 N/A
11:15 pm 23:15 Clear 73 23 N/A N/A WNW 3 6 30.10 1019 7 11 N/A
11:35 pm 23:35 Hazy 72 22 N/A N/A N N/A 30.11 1020 5 8 N/A
11:55 pm 23:55 Clear 72 22 N/A N/A N N/A 30.12 1020 10 16 N/A

Powered by AerisWeather